Location: Pine Mountain Observatory
(43.7910°N, 120.9377°W)
Time: 17:01:48
(UTC-07:00)

APEX - Visible Passes

Search period start: 20 September 2014 00:00
Search period end: 30 September 2014 00:00
Orbit: 339 x 1403 km, 69.9° (Epoch: 20 September)

Date Brightness Start Highest point End Pass type
(mag) Time Alt. Az. Time Alt. Az. Time Alt. Az.
20 Sep 6.7 01:05:51 20° NNE 01:05:51 20° NNE 01:07:27 10° NNE visible
20 Sep 6.6 02:48:17 18° NNW 02:48:17 18° NNW 02:50:58 10° N visible
21 Sep 6.8 01:00:00 18° NNE 01:00:00 18° NNE 01:01:20 10° NNE visible
21 Sep 6.7 02:42:27 16° NNW 02:42:27 16° NNW 02:44:39 10° N visible
22 Sep 6.8 00:54:05 16° NNE 00:54:05 16° NNE 00:55:07 10° NNE visible
22 Sep 6.8 02:36:31 14° NNW 02:36:31 14° NNW 02:38:14 10° N visible
23 Sep 6.9 00:48:06 14° NNE 00:48:06 14° NNE 00:48:50 10° NNE visible
23 Sep 6.9 02:30:31 13° NNW 02:30:31 13° NNW 02:31:41 10° NNW visible
24 Sep 7.0 00:42:02 13° NNE 00:42:02 13° NNE 00:42:29 10° NNE visible
24 Sep 7.0 02:24:27 11° NNW 02:24:27 11° NNW 02:25:00 10° NNW visible
25 Sep 7.1 00:35:54 11° NNE 00:35:54 11° NNE 00:36:03 10° NNE visible
